[[{"header":{"parameterUnit":"m.s-1","parameterCategory":1,"la1":30.2991,"la2":30.254,"lo1":-89.0895,"lo2":-89.0444,"dy":0.0017,"dx":0.0017,"nx":28,"ny":28,"refTime":"2025-04-22T09:00:00:Z","depth":0,"parameterNumber":2,"parameterNumberName":"U-component_of_WINDS"},"data":[0,0,0,0,0,0,0,0,0,0,0,0,0,0,0,0,0,0,0,0,0,0,0,0,0,0,0,0,0,0,0,0,0,0,0,0,0,0,0,0,0,0,0,0,0,0,0,0,0,0,0,0,0,0,0,0,0,0,-1.8452,-1.8452,0,-1.8444,-1.8444,-1.8443,-1.8428,-1.8428,-1.8427,-1.8427,-1.8414,-1.8414,-1.8414,0,0,0,0,0,0,0,0,0,0,0,0,0,-1.8455,-1.8455,-1.8452,-1.8452,-1.8452,-1.8444,-1.8444,-1.8443,-1.8428,-1.8428,-1.8427,-1.8427,-1.8414,-1.8414,-1.8414,0,0,0,0,0,0,0,0,0,0,0,0,0,-1.845,-1.8455,-1.8452,-1.8443,-1.8443,-1.8444,-1.8443,-1.8443,-1.8428,-1.8428,-1.8427,-1.8427,-1.8414,-1.8414,-1.8414,-1.8422,0,0,-1.8414,-1.8414,0,0,0,0,0,0,0,0,-1.8451,-1.845,-1.8445,-1.8444,-1.8443,-1.8437,-1.844,-1.8436,-1.8428,-1.8433,-1.8427,-1.8427,-1.8422,-1.8421,-1.842,-1.8421,-1.8421,-1.8414,-1.8414,-1.8414,-1.8414,0,0,0,0,0,0,0,-1.8451,-1.8451,-1.8449,-1.8445,-1.8444,-1.844,-1.8439,-1.8439,-1.843,-1.8433,-1.8432,-1.8431,-1.8421,-1.842,-1.842,-1.8421,-1.8414,-1.8414,-1.8414,-1.8414,-1.8431,-1.8431,0,0,0,0,0,0,-1.8453,-1.8451,-1.8449,-1.8448,-1.8446,-1.844,-1.8439,-1.8439,-1.843,-1.8428,-1.8432,-1.8431,-1.8421,-1.842,-1.8419,-1.8429,-1.8414,-1.8414,-1.8414,-1.843,-1.8431,-1.8431,0,0,0,0,0,0,-1.8453,-1.8453,-1.8449,-1.845,-1.8449,-1.844,-1.8441,-1.8439,-1.8438,-1.8429,-1.8427,-1.8432,-1.842,-1.8419,-1.8422,-1.8428,-1.8414,-1.8413,-1.8429,-1.843,-1.8431,-1.8447,0,0,0,0,0,0,-1.8453,-1.8453,-1.8456,-1.845,-1.8449,-1.8453,-1.8441,-1.8439,-1.8438,-1.8437,-1.8429,-1.8427,-1.842,-1.8423,-1.8422,-1.8428,-1.8413,-1.8429,-1.843,-1.8431,-1.8446,-1.8449,-1.8451,0,0,0,0,0,-1.8453,-1.8459,-1.8456,-1.8456,-1.8452,-1.8453,-1.8452,-1.8445,-1.8439,-1.8442,-1.8437,-1.8428,-1.8428,-1.8423,-1.8422,-1.8428,-1.8428,-1.8429,-1.8431,-1.8445,-1.8448,-1.8451,0,0,0,0,0,0,-1.8464,-1.8458,-1.8454,-1.8459,-1.8457,-1.845,-1.8453,-1.8448,-1.8446,-1.8444,-1.8434,-1.8433,-1.8437,-1.8433,-1.8427,-1.8437,-1.8427,-1.8428,-1.8438,-1.8441,-1.8443,-1.8443,-1.8413,0,0,0,0,0,-1.8467,-1.8469,-1.8464,-1.8468,-1.8468,-1.8461,-1.8461,-1.8456,-1.8453,-1.8451,-1.8446,-1.8443,-1.8442,-1.8442,-1.8441,-1.8447,-1.8445,-1.8451,-1.8453,-1.8455,-1.8455,-1.846,-1.8462,-1.8435,-1.8435,-1.8435,0,0,-1.8473,-1.847,-1.8471,-1.847,-1.8468,-1.847,-1.846,-1.8462,-1.8463,-1.8451,-1.8454,-1.845,-1.8446,-1.8451,-1.8453,-1.8448,-1.8463,-1.8456,-1.8458,-1.8457,-1.8461,-1.8464,-1.8466,-1.8436,-1.8436,-1.8436,0,0,-1.8484,-1.8483,-1.8487,-1.8486,-1.8484,-1.848,-1.8482,-1.8477,-1.8475,-1.8478,-1.847,-1.8471,-1.8471,-1.8468,-1.8467,-1.8483,-1.8475,-1.8483,-1.8494,-1.8498,-1.8501,-1.8502,-1.8508,-1.851,-1.8484,-1.8484,-1.8484,0,-1.8491,-1.8494,-1.8489,-1.8493,-1.8493,-1.8485,-1.849,-1.8489,-1.8486,-1.8486,-1.8481,-1.8482,-1.8479,-1.8484,-1.8489,-1.8488,-1.8489,-1.8483,-1.8501,-1.8503,-1.8504,-1.851,-1.8512,-1.8485,-1.8485,-1.8485,-1.8485,0,-1.8504,-1.8506,-1.851,-1.851,-1.8511,-1.8515,-1.851,-1.8512,-1.8508,-1.8505,-1.851,-1.8506,-1.8505,-1.8507,-1.8502,-1.8512,-1.8509,-1.8503,-1.8493,-1.8508,-1.8513,-1.8515,-1.8487,-1.8486,-1.8486,-1.8486,0,0,-1.8518,-1.8518,-1.8519,-1.852,-1.8519,-1.8521,-1.8526,-1.8527,-1.8528,-1.8528,-1.8531,-1.8533,-1.8529,-1.8528,-1.8523,-1.8527,-1.8541,-1.8521,-1.8521,-1.8524,-1.8553,-1.8557,-1.8559,-1.8537,-1.8538,-1.8538,-1.8553,0,-1.8528,-1.8536,-1.8534,-1.8542,-1.8545,-1.854,-1.8544,-1.8544,-1.8542,-1.8544,-1.8542,-1.8544,-1.8538,-1.8537,-1.8542,-1.8538,-1.8546,-1.8538,-1.8539,-1.854,-1.8539,-1.8561,-1.8565,-1.8579,-1.8555,-1.8555,-1.8556,0,-1.8541,-1.8543,-1.8552,-1.8553,-1.8554,-1.8558,-1.856,-1.8563,-1.8563,-1.8562,-1.8563,-1.8559,-1.8564,-1.8556,-1.8563,-1.8557,-1.8559,-1.8558,-1.8558,-1.8556,-1.8547,-1.8559,-1.8583,-1.8585,-1.8559,-1.8558,-1.8558,0,-1.855,-1.8556,-1.8562,-1.8563,-1.8565,-1.8568,-1.8568,-1.8569,-1.8571,-1.8573,-1.8574,-1.8576,-1.8577,-1.8579,-1.8576,-1.857,-1.8583,-1.8575,-1.8582,-1.8582,-1.8582,-1.8582,-1.8606,-1.8586,-1.8586,-1.8586,-1.8586,0,-1.8562,-1.8567,-1.8567,-1.8571,-1.8577,-1.8575,-1.8582,-1.8582,-1.8583,-1.8587,-1.8583,-1.8587,-1.8583,-1.8586,-1.8584,-1.859,-1.8591,-1.859,-1.8589,-1.8589,-1.8589,-1.8588,-1.8586,-1.8587,-1.8586,-1.8586,-1.8586,0,-1.8572,-1.8572,-1.8579,-1.8581,-1.8582,-1.8587,-1.8588,-1.8592,-1.8592,-1.8597,-1.8598,-1.8597,-1.8602,-1.86,-1.8603,-1.8602,-1.861,-1.8609,-1.861,-1.8609,-1.8616,-1.8615,-1.8638,-1.8641,-1.8621,-1.8621,-1.8621,0,-1.8578,-1.8583,-1.8587,-1.859,-1.8591,-1.8596,-1.8599,-1.8598,-1.8601,-1.8604,-1.8607,-1.8612,-1.8615,-1.8622,-1.8622,-1.8625,-1.8623,-1.8631,-1.8623,-1.8624,-1.8622,-1.8621,-1.8622,-1.8632,-1.8632,-1.8632,-1.8632,0,-1.859,-1.8591,-1.8595,-1.86,-1.8604,-1.8608,-1.8611,-1.8614,-1.8613,-1.8617,-1.8622,-1.8625,-1.8631,-1.8635,-1.8639,-1.864,-1.8636,-1.8636,-1.8637,-1.8637,-1.8637,-1.8637,-1.8613,-1.8634,-1.8634,-1.8634,-1.8634,-1.8634,-1.8598,-1.8603,-1.8607,-1.8612,-1.8615,-1.8619,-1.8624,-1.8625,-1.863,-1.8635,-1.8635,-1.8641,-1.8644,-1.8649,-1.8651,-1.8656,-1.8652,-1.8654,-1.8655,-1.8655,-1.8656,-1.8639,-1.8656,-1.8656,-1.8656,-1.8656,-1.8656,0,-1.8609,-1.8613,-1.8618,-1.8624,-1.8629,-1.8627,-1.8632,-1.8636,-1.8641,-1.8645,-1.865,-1.8657,-1.8662,-1.8663,-1.8669,-1.8672,-1.8671,-1.8674,-1.8672,-1.8673,-1.8659,-1.8656,-1.8675,-1.8675,-1.8675,-1.8675,-1.8675,-1.8675,-1.8615,-1.8623,-1.8625,-1.8635,-1.8638,-1.8645,-1.8648,-1.8652,-1.8655,-1.8663,-1.8668,-1.867,-1.8673,-1.8679,-1.8684,-1.8685,-1.8686,-1.8689,-1.8689,-1.8675,-1.8673,-1.8671,-1.8669,-1.869,-1.869,-1.8702,-1.8702,-1.8703]},{"header":{"parameterUnit":"m.s-1","parameterCategory":1,"la1":30.2991,"la2":30.254,"lo1":-89.0895,"lo2":-89.0444,"dy":0.0017,"dx":0.0017,"nx":28,"ny":28,"refTime":"2025-04-22T09:00:00:Z","depth":0,"parameterNumber":3,"parameterNumberName":"V-component_of_WINDS"},"data":[0,0,0,0,0,0,0,0,0,0,0,0,0,0,0,0,0,0,0,0,0,0,0,0,0,0,0,0,0,0,0,0,0,0,0,0,0,0,0,0,0,0,0,0,0,0,0,0,0,0,0,0,0,0,0,0,0,0,3.2975,3.2975,0,3.2991,3.2991,3.2991,3.301,3.3011,3.3011,3.3011,3.3026,3.3027,3.3027,0,0,0,0,0,0,0,0,0,0,0,0,0,3.2959,3.296,3.2975,3.2975,3.2975,3.2991,3.2991,3.2992,3.301,3.3011,3.3011,3.3011,3.3026,3.3027,3.3027,0,0,0,0,0,0,0,0,0,0,0,0,0,3.297,3.296,3.2975,3.2987,3.2988,3.2991,3.2991,3.2992,3.301,3.3011,3.3011,3.3011,3.3026,3.3027,3.3027,3.3019,0,0,3.3027,3.3028,0,0,0,0,0,0,0,0,3.2969,3.297,3.2985,3.2986,3.2987,3.2999,3.2991,3.3001,3.301,3.3002,3.3011,3.3012,3.3017,3.3018,3.302,3.302,3.3021,3.3027,3.3028,3.3028,3.3028,0,0,0,0,0,0,0,3.2968,3.297,3.2981,3.2985,3.2986,3.2991,3.2993,3.2993,3.3007,3.3002,3.3004,3.3006,3.3018,3.302,3.3021,3.3021,3.3027,3.3028,3.3028,3.3028,3.3015,3.3015,0,0,0,0,0,0,3.2966,3.2969,3.2981,3.2982,3.2979,3.2991,3.2993,3.2995,3.3007,3.3009,3.3005,3.3006,3.3019,3.302,3.3021,3.3013,3.3028,3.3028,3.3028,3.3016,3.3015,3.3015,0,0,0,0,0,0,3.2966,3.2967,3.298,3.2976,3.2978,3.299,3.2993,3.2995,3.2997,3.3009,3.3011,3.3005,3.302,3.3021,3.302,3.3014,3.3028,3.3028,3.3016,3.3016,3.3015,3.2997,0,0,0,0,0,0,3.2965,3.2967,3.2964,3.2976,3.2978,3.2979,3.2992,3.2995,3.2997,3.2999,3.3009,3.3011,3.302,3.3019,3.302,3.3014,3.3028,3.3017,3.3016,3.3015,3.2998,3.2995,3.2993,0,0,0,0,0,3.2965,3.2959,3.2964,3.2966,3.2975,3.2979,3.298,3.299,3.2997,3.2994,3.3002,3.3011,3.3014,3.3019,3.302,3.3014,3.3017,3.3016,3.3015,3.2999,3.2996,3.2993,0,0,0,0,0,0,3.2946,3.296,3.2967,3.2964,3.297,3.2982,3.2979,3.2987,3.2991,3.2992,3.3005,3.3007,3.3004,3.3009,3.3014,3.3007,3.3017,3.3016,3.3004,3.3002,3.2999,3.2998,3.3029,0,0,0,0,0,3.2942,3.2944,3.2956,3.2952,3.2955,3.2966,3.2968,3.2976,3.2982,3.2985,3.2992,3.2997,3.3,3.3001,3.3004,3.2999,3.3001,3.2995,3.2993,3.2991,3.299,3.2987,3.2985,3.3011,3.3011,3.3011,0,0,3.2933,3.2941,3.2941,3.2949,3.2954,3.2955,3.2968,3.2969,3.297,3.2985,3.2984,3.2989,3.2996,3.2993,3.2992,3.2997,3.2983,3.299,3.2988,3.2988,3.2986,3.2983,3.2981,3.3011,3.3011,3.3011,0,0,3.2917,3.2923,3.2921,3.2926,3.2934,3.2942,3.2941,3.2951,3.2956,3.2955,3.2966,3.2967,3.2971,3.2975,3.2978,3.2963,3.2971,3.2964,3.2952,3.2949,3.2947,3.2945,3.2939,3.2937,3.2963,3.2963,3.2963,0,3.2905,3.2907,3.2919,3.2919,3.2922,3.2935,3.2933,3.2937,3.2945,3.2947,3.2952,3.2957,3.2963,3.296,3.2957,3.2959,3.2958,3.2963,3.2946,3.2945,3.2943,3.2938,3.2936,3.2962,3.2962,3.2962,3.2962,0,3.2892,3.2893,3.289,3.2898,3.29,3.2899,3.291,3.2911,3.2918,3.2925,3.2924,3.2931,3.2935,3.2935,3.2942,3.2934,3.2937,3.2944,3.2954,3.2939,3.2935,3.2933,3.296,3.2961,3.2961,3.2961,0,0,3.2865,3.2879,3.2878,3.2881,3.2891,3.2892,3.2891,3.2895,3.2896,3.2901,3.29,3.2902,3.2909,3.2912,3.292,3.2917,3.2904,3.2925,3.2925,3.2921,3.2895,3.2889,3.2886,3.291,3.2909,3.2909,3.2894,0,3.2851,3.2851,3.2861,3.2857,3.2858,3.287,3.2869,3.2875,3.2881,3.2882,3.2889,3.2891,3.29,3.2901,3.2899,3.2906,3.2899,3.2908,3.2909,3.2908,3.2906,3.2884,3.2878,3.2863,3.2892,3.2892,3.2892,0,3.2835,3.2839,3.2835,3.2845,3.2845,3.2844,3.2849,3.285,3.2856,3.2861,3.2864,3.2872,3.2871,3.2881,3.2879,3.2884,3.2885,3.2889,3.2888,3.2889,3.2899,3.2883,3.2859,3.2856,3.2889,3.2889,3.2889,0,3.2816,3.282,3.2819,3.2821,3.2832,3.2831,3.2835,3.2842,3.2843,3.2847,3.2848,3.2852,3.2853,3.2856,3.2865,3.2871,3.2862,3.2872,3.2865,3.2865,3.2863,3.2863,3.2838,3.2863,3.2863,3.2864,3.2864,0,3.2799,3.2796,3.281,3.2809,3.2806,3.2817,3.2814,3.2819,3.2825,3.2825,3.2836,3.2835,3.2847,3.2848,3.2855,3.2852,3.2853,3.2856,3.2858,3.2855,3.2855,3.2856,3.2857,3.2863,3.2863,3.2863,3.2863,0,3.2777,3.2786,3.2785,3.2795,3.2798,3.2795,3.2803,3.2802,3.2809,3.2808,3.2809,3.2819,3.282,3.283,3.2833,3.2838,3.2832,3.2836,3.283,3.2831,3.2824,3.2824,3.2799,3.2795,3.2823,3.2823,3.2823,0,3.2766,3.2764,3.2773,3.2774,3.2778,3.2779,3.2781,3.2791,3.2793,3.2799,3.2797,3.2799,3.2802,3.2803,3.281,3.2813,3.2817,3.2808,3.2817,3.2814,3.2816,3.2816,3.2816,3.2806,3.2805,3.2805,3.2805,0,3.2744,3.2749,3.2751,3.2755,3.2757,3.276,3.2764,3.2764,3.2775,3.2776,3.2778,3.2779,3.2783,3.2784,3.2788,3.2792,3.28,3.2801,3.28,3.2797,3.2793,3.2795,3.2824,3.2802,3.2802,3.2803,3.2803,3.2803,3.2728,3.2726,3.2733,3.2734,3.2738,3.2742,3.2741,3.2747,3.2749,3.2753,3.2759,3.2759,3.2764,3.277,3.2773,3.2773,3.2778,3.2776,3.2775,3.2775,3.2773,3.2793,3.2774,3.2774,3.2774,3.2774,3.2774,0,3.2707,3.2711,3.2713,3.2718,3.2719,3.2727,3.2731,3.2732,3.2732,3.2736,3.2738,3.2739,3.2741,3.2748,3.275,3.2749,3.2753,3.2749,3.2749,3.275,3.2769,3.277,3.2746,3.2746,3.2746,3.2746,3.2746,3.2746,3.2696,3.2694,3.2699,3.2699,3.2703,3.2704,3.2706,3.2708,3.2712,3.2713,3.2714,3.2719,3.2724,3.2727,3.2728,3.273,3.2731,3.2726,3.2729,3.2746,3.2749,3.2751,3.2752,3.2726,3.2726,3.271,3.271,3.271]}]]